Theta_e
309 313 313 314 314 313 312 311 311 312 312 311 311 312 312 311 310 310 311 309 307 308 310 310 310 309 309 309 308 309 309 308 308 309 309 310 310 310 311 312 313 312 313 314 313 313 313 312 312 312 312 312 313 313 313 313 313 313 313 313 314 314 313 313 313 313 313 313 313 313 313 314 314 313 313 313 313 312 312 311 310 309 308 307 306 307
309 313 314 314 313 312 313 311 310 311 311 311 311 312 311 310 310 309 310 310 307 308 310 311 310 309 309 309 308 309 309 309 309 309 309 310 310 311 311 312 313 312 313 314 313 312 313 312 313 312 312 313 313 313 313 313 313 313 312 312 313 312 313 313 313 314 314 314 314 314 314 314 313 314 313 313 313 313 312 312 311 310 308 307 306 306
311 312 312 311 310 311 314 313 310 311 311 312 311 311 311 311 311 310 310 311 308 308 311 312 310 309 309 309 309 309 309 309 309 309 310 311 310 310 312 313 312 312 314 315 313 312 313 313 313 313 313 313 313 313 313 313 312 312 312 312 313 312 313 313 313 313 313 314 313 313 313 313 313 313 313 313 313 313 312 312 311 310 309 307 306 306
314 315 311 308 307 309 313 312 312 311 311 312 311 311 312 311 311 312 311 312 310 308 310 310 308 309 310 310 309 309 309 309 310 310 310 310 310 312 313 313 312 312 314 313 312 312 313 313 313 313 313 313 313 313 312 313 312 312 312 312 312 313 312 313 313 312 312 312 312 312 312 312 312 312 312 312 312 312 312 312 311 310 309 308 307 306
315 314 308 307 308 310 311 310 310 311 311 312 312 311 312 311 311 311 311 312 311 311 311 310 311 314 314 314 315 311 309 309 308 309 309 311 314 314 313 313 311 311 311 310 311 313 313 313 313 313 313 313 313 313 312 312 312 312 311 311 311 311 311 312 312 311 311 311 311 311 311 311 311 311 311 311 312 312 312 312 311 311 310 308 307 306
312 310 307 310 311 309 310 310 311 313 311 311 313 312 311 311 311 311 311 310 311 314 313 310 313 317 316 318 321 318 317 314 310 310 311 313 315 313 312 313 311 310 309 311 312 312 313 313 313 313 313 314 314 313 313 312 312 312 311 311 310 310 310 311 311 310 310 310 310 310 310 311 311 311 312 312 312 312 312 312 312 311 310 309 308 307
312 309 308 313 314 311 310 310 313 313 310 312 315 315 312 311 311 312 311 310 314 316 311 311 316 316 314 317 320 320 321 319 315 315 313 311 311 311 312 312 309 310 310 311 312 312 313 313 313 314 314 314 314 314 314 313 313 312 312 311 311 310 310 310 310 310 310 310 309 310 310 310 311 311 312 312 312 312 312 312 311 311 311 310 309 307
312 310 309 311 313 314 312 311 313 311 310 314 314 316 316 313 313 312 310 311 313 313 311 312 314 313 314 315 316 316 316 318 317 317 313 309 310 311 312 311 309 310 311 311 312 312 313 313 313 314 313 314 314 313 313 313 313 312 312 311 311 311 310 310 309 309 309 309 309 309 309 309 310 310 311 311 311 311 311 311 311 311 311 310 309 308
310 313 312 313 313 313 314 314 314 311 312 315 311 311 314 313 312 311 311 312 311 311 313 312 311 315 317 314 314 313 315 320 318 315 313 310 312 313 313 312 309 310 311 311 312 313 313 313 313 313 313 313 312 313 313 313 313 313 312 312 311 311 311 310 310 309 309 309 308 309 309 309 309 309 309 309 309 310 310 310 310 310 310 310 309 308
308 311 310 314 316 314 315 316 315 313 313 311 308 310 313 312 312 311 312 314 315 315 314 313 313 316 319 317 316 314 315 321 318 315 315 311 311 315 315 311 309 310 311 311 312 313 312 312 312 312 312 312 311 312 313 313 313 313 313 313 312 311 311 310 310 310 310 309 309 308 309 309 309 309 308 308 309 309 309 309 309 310 309 310 309 308
307 306 306 311 313 313 315 311 307 310 309 305 308 314 315 314 313 314 315 315 316 317 314 315 315 315 319 319 319 318 318 321 318 316 318 314 311 314 314 309 308 311 311 312 313 313 312 312 312 312 312 311 312 312 313 313 313 313 313 314 312 311 310 310 310 310 310 310 310 309 309 308 308 308 308 308 308 308 308 309 309 309 309 309 309 309
307 307 309 311 308 307 312 309 304 304 303 306 314 316 315 316 315 316 317 315 316 318 316 315 314 313 318 318 317 320 319 317 317 316 320 318 313 314 313 307 308 311 311 312 312 311 312 312 312 312 312 312 312 313 313 313 313 313 313 313 312 310 309 309 309 309 309 309 309 310 309 309 308 307 307 307 307 307 308 308 308 308 308 308 308 308
313 312 310 309 307 306 311 312 309 307 306 309 314 313 312 316 316 316 318 317 316 318 314 311 311 311 316 317 315 317 316 314 313 311 315 315 311 313 312 307 308 311 310 310 310 310 310 310 311 311 311 311 312 313 313 313 313 312 312 311 310 309 307 307 307 308 308 308 309 308 308 309 308 307 307 307 307 307 307 307 307 307 308 308 308 308
320 316 309 308 309 308 311 312 312 313 311 309 312 313 314 315 316 317 319 318 317 319 313 308 311 314 316 319 318 316 314 313 310 308 310 310 309 312 310 307 309 310 309 309 309 309 309 308 309 310 310 311 312 312 312 313 313 312 311 310 309 309 307 306 306 306 306 307 307 307 307 307 307 307 307 306 306 306 306 306 306 306 307 307 307 308
319 320 316 314 313 310 309 310 315 318 312 308 312 315 315 317 320 320 321 320 319 321 315 308 313 318 319 322 320 314 311 310 309 309 309 309 310 311 308 307 309 309 308 307 307 307 307 306 307 307 308 309 311 311 311 312 312 312 312 310 309 309 308 307 306 305 304 305 305 305 306 306 306 306 306 306 306 306 305 306 305 305 305 306 306 306
316 322 321 312 309 309 310 310 314 319 314 310 313 314 313 316 319 318 319 321 320 320 316 312 316 318 316 317 316 310 309 308 308 308 308 308 309 308 307 307 307 306 306 306 306 305 304 304 304 304 306 308 309 310 310 310 310 311 311 310 308 308 308 308 307 306 304 303 303 304 304 304 304 304 305 305 306 305 305 305 305 305 305 305 305 305
317 322 319 309 307 308 308 308 310 313 315 312 311 313 313 314 317 316 317 320 319 318 318 317 318 316 315 317 315 313 314 314 312 309 304 305 306 306 305 304 303 303 304 304 304 303 303 303 303 304 305 306 306 307 308 308 308 309 309 309 308 308 307 308 308 307 305 303 302 302 302 303 303 303 303 304 304 304 304 304 304 305 305 305 305 305
320 321 318 314 314 309 304 306 307 307 310 314 314 314 312 313 315 315 317 320 319 318 320 320 319 318 320 319 315 316 319 317 316 313 305 303 304 303 301 300 299 300 301 302 303 302 302 303 303 303 303 303 304 304 305 306 306 307 308 308 308 307 307 307 307 307 306 305 303 301 301 302 302 302 302 303 303 303 303 304 304 304 304 305 305 305
318 318 318 315 315 312 304 307 310 307 306 312 314 313 313 314 315 316 316 318 318 319 320 321 320 319 320 319 317 319 318 313 313 312 306 303 302 300 298 298 297 298 299 300 301 301 301 301 301 301 301 302 302 303 303 304 305 306 306 306 307 307 306 306 306 306 306 305 304 303 302 301 301 301 302 302 302 303 303 304 304 304 304 304 304 304
315 317 319 315 313 314 311 311 316 314 308 307 308 310 312 313 314 315 315 315 318 319 320 321 321 320 321 319 317 316 314 311 310 309 303 300 299 297 296 296 295 295 296 296 297 298 298 298 299 299 299 300 300 300 301 302 303 303 303 304 304 305 306 306 306 305 305 304 304 304 303 302 300 300 300 301 301 302 303 303 303 304 303 304 303 303
315 317 317 315 314 315 315 315 316 318 314 310 311 313 313 313 314 316 315 315 317 318 319 320 320 321 320 317 316 313 310 308 307 304 299 297 296 295 294 294 294 294 294 294 295 295 296 296 297 297 298 298 299 299 299 299 300 300 301 302 302 303 304 305 305 305 304 304 303 303 304 303 302 301 299 299 299 300 301 302 302 303 303 303 303 303
315 317 316 316 316 315 317 317 316 317 317 316 316 317 318 316 316 318 318 316 315 316 318 319 319 320 321 319 314 310 304 301 301 299 297 296 295 294 294 293 294 294 295 295 295 295 296 296 296 297 297 298 299 299 298 299 299 300 300 300 300 301 302 302 302 303 303 303 303 303 303 303 304 303 302 301 300 300 300 300 301 301 301 302 302 302
312 315 316 316 317 316 317 316 314 314 314 315 315 316 317 316 316 318 320 317 315 315 316 317 317 319 322 319 310 302 298 296 296 295 295 294 293 293 293 293 294 294 295 295 296 296 296 296 297 299 300 300 300 300 300 299 299 298 298 298 298 298 298 299 299 301 302 302 303 303 302 302 303 303 303 303 303 302 301 300 300 300 300 301 301 301
309 313 316 315 316 317 317 314 311 311 313 313 314 314 314 315 315 316 316 315 316 316 316 317 317 318 321 316 302 297 296 295 294 294 293 293 293 293 293 293 294 294 294 295 296 296 296 297 298 298 298 298 298 297 297 297 296 296 295 295 295 295 295 296 297 298 299 300 301 302 302 302 302 301 302 302 302 302 302 301 300 299 299 299 299 299
310 313 315 315 316 317 316 314 312 312 314 314 315 315 313 314 315 314 313 313 314 315 316 317 317 317 320 314 302 297 296 294 293 293 292 293 293 293 294 293 293 294 294 294 295 295 296 296 296 295 295 294 294 294 294 294 295 294 294 294 294 294 294 294 294 295 296 298 299 300 301 301 301 301 300 301 301 301 301 301 300 299 298 298 298 298
310 312 314 315 316 315 314 314 312 311 312 313 314 314 312 313 314 313 313 314 314 315 316 315 315 315 317 314 306 301 298 294 293 292 292 292 292 292 293 293 293 293 293 293 293 293 294 294 294 294 293 294 293 293 293 293 294 294 294 293 293 293 293 293 293 293 294 295 296 298 299 300 300 300 300 300 300 299 299 299 300 300 299 298 297 297
310 311 313 313 313 314 313 313 311 308 309 311 312 312 311 310 311 311 312 314 314 314 314 314 314 313 313 313 308 303 300 296 293 292 292 292 292 292 292 291 291 291 291 291 291 292 292 292 293 292 292 292 292 292 292 292 292 293 293 293 293 293 292 292 293 293 293 293 294 295 296 297 298 298 299 299 299 299 299 298 298 299 299 299 298 297
310 309 311 312 311 311 310 308 307 306 307 308 309 309 308 308 309 310 310 311 311 312 312 313 313 310 311 311 307 301 298 295 294 293 292 292 292 292 291 291 291 291 291 291 291 291 291 291 291 292 291 291 291 291 291 291 291 291 291 292 292 292 292 292 292 291 292 292 292 293 293 293 294 295 296 297 297 298 298 298 298 298 298 298 298 297
309 308 308 309 308 307 305 304 304 305 305 305 306 306 306 306 307 307 306 307 308 308 309 310 309 308 309 307 301 296 295 294 294 293 293 292 292 292 291 291 291 291 290 290 290 290 290 290 290 290 290 290 290 290 290 290 290 290 290 290 290 290 290 290 290 290 291 291 291 292 292 292 292 293 294 295 296 296 297 297 298 298 297 297 297 297
306 306 306 305 304 303 303 303 303 303 302 302 302 302 303 303 303 304 303 304 305 305 306 306 306 307 306 301 296 294 294 293 293 293 293 292 292 292 291 291 290 290 290 290 290 290 290 289 289 289 289 289 289 290 290 290 290 290 290 290 289 289 289 289 289 289 289 290 290 291 291 291 292 292 293 293 294 295 295 296 296 297 297 297 297 296
304 305 304 303 302 302 302 302 302 301 301 300 300 301 301 301 301 301 301 302 303 303 304 304 305 306 300 294 293 294 293 292 292 292 292 292 293 293 292 291 290 290 290 290 290 290 290 289 289 289 289 288 288 289 289 289 289 289 289 289 289 289 288 288 288 288 288 289 289 289 290 290 291 292 292 293 293 293 294 294 295 296 296 297 297 297
302 303 302 301 300 300 301 301 300 299 299 299 299 299 299 299 299 299 300 301 301 302 302 303 304 303 297 292 293 293 292 292 292 291 291 292 292 293 293 292 290 289 290 290 290 290 290 289 289 289 288 288 288 288 288 288 288 288 288 288 288 288 288 288 288 288 288 288 288 288 288 289 290 291 291 292 293 293 293 292 293 294 295 296 297 297
301 301 300 300 299 299 299 299 298 298 297 297 297 298 298 297 298 298 298 301 302 302 303 303 301 297 294 293 294 294 293 292 291 291 291 291 291 292 293 292 290 289 289 290 290 290 290 289 289 289 288 288 288 287 287 287 287 287 287 287 287 287 287 287 287 287 287 287 287 287 287 288 288 288 289 290 291 292 292 292 292 292 293 294 295 296
300 299 298 299 299 298 298 297 296 296 295 295 298 300 300 299 299 299 299 302 302 300 299 299 296 294 294 295 295 294 293 292 291 291 291 291 291 292 292 291 290 289 289 289 289 289 289 289 289 289 288 288 288 288 287 287 287 287 287 287 287 287 287 287 287 287 287 286 287 287 287 287 287 287 287 288 288 289 290 291 292 291 291 292 293 294
297 297 297 298 298 297 297 297 295 295 295 296 298 298 298 299 301 300 299 299 298 296 296 296 295 295 295 294 293 292 292 291 291 291 291 291 290 291 291 291 290 289 289 289 289 289 289 289 289 289 288 288 288 288 287 287 287 287 287 287 287 286 286 286 286 286 286 286 286 286 286 286 286 286 286 286 287 287 288 289 290 290 291 291 291 292
296 295 295 297 297 296 296 296 295 295 295 296 297 296 295 297 298 296 297 297 294 294 296 296 295 295 295 293 292 292 291 291 291 291 291 291 291 291 291 291 289 289 289 289 289 289 289 289 289 289 288 288 288 288 288 287 287 286 286 286 286 286 286 286 286 286 286 286 286 286 286 286 286 286 286 286 286 286 286 287 287 288 289 290 290 291
295 295 295 295 295 295 294 295 295 295 295 297 298 296 294 295 296 295 297 297 293 292 293 294 294 295 294 293 292 292 291 291 291 291 291 290 291 291 292 291 290 289 289 289 289 289 289 289 289 288 288 288 288 288 288 287 287 286 286 286 286 286 286 286 286 286 285 285 285 286 286 285 285 285 286 286 286 286 286 286 286 287 287 288 289 290
295 295 295 294 295 295 295 295 295 295 296 297 297 295 292 292 294 294 296 297 293 289 289 292 295 296 294 292 292 291 291 291 291 291 290 290 290 291 291 291 290 290 289 289 289 289 289 289 288 288 288 288 288 288 288 287 286 286 286 286 286 286 286 286 286 285 285 285 285 285 286 285 285 285 285 285 285 285 285 285 286 286 286 286 287 288
294 295 295 295 295 296 296 296 296 296 297 297 296 295 292 291 292 293 294 295 291 287 287 290 292 292 291 291 291 291 292 292 291 290 290 290 290 290 290 290 290 290 289 289 289 289 289 288 288 288 288 288 288 288 287 287 286 286 286 286 286 286 286 286 285 285 284 284 285 285 285 285 285 285 285 285 285 285 285 285 285 285 285 285 285 286
293 294 295 295 295 296 296 296 296 296 297 297 296 295 292 291 292 293 294 294 289 287 288 289 290 290 290 290 290 291 292 292 290 290 290 289 289 290 290 290 290 290 290 290 290 290 289 288 288 288 288 288 287 287 287 286 285 285 286 286 285 285 285 285 285 284 284 284 284 284 285 285 285 285 285 285 285 285 285 285 285 285 285 285 285 285
292 293 293 293 295 296 295 296 295 295 297 297 296 294 291 290 292 293 294 293 289 287 289 289 289 289 290 290 290 291 291 291 290 289 289 289 289 289 290 290 290 290 290 290 290 290 288 288 288 288 287 287 287 286 286 285 284 284 285 284 284 285 285 284 284 283 283 283 284 284 284 284 284 284 284 284 284 285 285 285 285 285 284 284 284 285
291 291 291 291 292 293 294 294 293 293 294 294 294 292 290 291 294 294 293 291 289 289 289 289 289 289 289 289 290 290 290 289 289 289 289 289 289 289 289 290 290 291 291 290 290 289 288 287 287 286 286 286 286 285 285 284 283 283 283 283 283 284 283 283 283 283 283 283 284 284 284 284 284 284 284 284 284 284 284 285 285 285 285 284 284 284
292 292 293 293 292 291 291 292 292 292 293 291 291 291 291 293 295 294 291 289 290 290 290 289 289 289 289 289 289 289 289 288 288 288 289 289 289 289 289 290 290 290 290 289 289 288 286 285 285 285 286 286 285 285 284 283 282 282 282 282 283 282 282 281 282 282 282 282 283 283 283 283 283 283 284 284 284 284 284 284 284 284 285 284 284 284
292 292 293 293 292 291 291 292 293 293 292 291 290 292 292 292 292 291 289 289 290 290 289 289 289 289 289 288 288 288 288 288 288 288 288 288 288 289 289 289 289 289 288 287 287 286 285 284 284 284 285 285 284 284 283 282 281 281 281 282 282 281 280 280 280 280 281 281 282 282 282 283 283 283 283 283 283 283 283 284 284 284 284 284 284 284
292 292 292 292 292 292 292 293 293 291 290 290 290 291 291 291 290 290 290 289 289 289 289 289 288 288 288 287 287 287 287 287 287 287 287 287 288 288 288 288 287 286 286 286 286 285 283 282 282 282 283 283 283 282 282 281 280 280 280 281 280 279 278 278 278 278 279 280 280 281 282 282 282 282 282 282 282 282 282 283 283 283 284 283 283 283
290 290 290 290 291 291 290 291 291 290 289 290 290 290 290 290 290 290 290 289 289 289 289 288 287 287 287 286 286 286 286 286 286 286 286 285 286 286 286 286 285 285 284 284 284 283 282 281 281 281 280 281 282 281 280 279 278 277 278 278 277 276 276 276 276 276 277 278 279 280 280 280 281 281 281 281 281 281 281 282 282 282 282 282 282 283
289 289 289 289 290 290 289 290 290 289 290 290 290 290 290 290 290 290 290 289 289 288 288 287 286 286 286 285 285 285 285 284 284 283 284 284 284 284 284 283 283 283 283 282 281 280 279 279 279 278 278 278 280 279 278 277 276 275 275 274 274 274 273 273 273 273 274 275 276 277 277 277 278 279 280 280 280 280 280 281 281 280 280 281 281 281
289 289 290 290 289 289 289 289 289 289 289 289 290 290 290 290 290 289 289 288 288 287 287 286 286 285 285 284 283 283 284 283 282 281 282 282 282 282 282 281 281 281 281 280 279 278 277 277 276 275 275 275 276 276 274 274 273 273 272 272 271 271 271 271 271 271 271 272 272 273 274 274 274 275 276 277 277 277 278 279 279 279 279 279 279 279
289 289 290 291 290 289 289 289 289 289 289 289 290 290 289 289 289 288 288 288 287 287 286 286 285 284 283 283 282 282 282 282 281 279 280 281 281 280 279 279 279 279 278 278 277 275 274 273 273 272 272 272 272 272 271 271 270 270 269 269 268 268 268 268 268 268 269 269 269 270 271 271 271 271 272 272 273 274 274 276 276 276 277 279 279 278
289 289 290 290 289 289 289 289 289 289 289 289 289 289 288 288 288 287 287 287 286 286 286 286 285 284 282 282 281 280 280 280 279 278 278 280 279 278 277 277 277 277 276 274 273 273 272 271 270 270 269 270 269 268 267 267 267 267 266 266 266 265 265 266 266 266 267 267 267 267 268 268 268 269 269 269 270 271 272 273 274 274 274 277 279 279
289 289 289 289 289 289 289 289 289 289 288 289 288 287 287 287 287 286 286 285 285 284 284 283 283 283 282 281 280 279 279 279 278 278 278 280 279 277 276 276 275 274 273 273 272 271 271 271 269 267 267 267 266 265 265 264 264 264 263 263 263 263 263 263 263 264 264 264 265 265 265 265 266 266 266 267 267 267 268 270 273 274 274 275 276 277
Wind_Speed
9 4 3 6 9 12 13 12 13 11 4 2 2 4 6 6 8 8 9 8 1 4 9 10 18 17 13 12 13 26 28 21 26 31 35 38 34 35 39 43 46 44 42 41 37 33 31 29 28 26 25 24 23 22 21 22 23 24 25 28 30 30 31 33 35 37 39 42 44 46 48 49 49 49 49 50 49 49 49 50 51 51 50 49 48 47
6 6 7 12 13 10 8 7 7 6 5 5 5 6 6 5 10 10 8 9 1 2 6 6 16 19 14 12 13 22 22 18 24 25 30 36 34 37 41 45 45 39 37 35 30 28 27 26 24 22 20 18 18 17 17 18 18 20 22 25 26 27 30 32 33 35 38 41 42 44 45 46 46 47 49 49 48 49 50 51 52 53 52 51 50 49
3 5 10 16 9 2 2 3 3 5 6 7 5 5 6 3 8 9 5 7 1 2 6 6 14 17 14 14 16 21 20 22 26 24 31 38 34 39 44 42 37 34 35 33 29 28 25 22 18 16 15 14 15 15 16 16 17 18 20 22 23 26 28 30 32 35 37 38 40 42 43 44 45 46 48 48 48 50 52 53 53 54 54 53 52 51
4 6 13 17 8 3 3 4 6 1 4 5 5 4 6 3 4 7 3 5 3 3 6 9 14 15 12 14 15 19 20 21 27 30 35 39 37 42 44 37 33 33 33 32 29 24 20 19 18 17 17 17 16 15 14 15 16 17 18 20 22 24 26 29 32 34 35 36 39 41 43 45 46 46 46 47 49 51 53 54 54 55 55 55 54 53
7 4 6 8 6 8 7 1 4 3 5 6 6 5 8 8 8 9 5 6 5 4 4 6 12 10 5 6 7 8 9 13 23 26 29 37 41 40 38 34 29 25 23 24 21 19 21 20 20 20 21 21 20 19 16 15 15 16 17 18 21 23 25 27 29 32 34 37 39 42 44 46 47 48 48 48 50 52 54 54 55 55 55 55 55 54
8 5 2 4 5 7 7 4 5 7 7 6 5 10 13 13 11 11 8 7 5 4 3 5 7 7 1 1 4 4 3 7 11 12 21 36 35 28 29 28 19 17 17 16 17 20 20 21 22 24 26 26 26 25 23 21 18 16 15 17 20 22 25 26 28 30 34 37 39 42 44 46 47 48 49 50 51 51 50 51 52 53 54 55 55 55
4 6 4 5 5 6 6 5 7 9 6 6 5 10 13 11 9 10 7 4 1 4 3 4 2 8 3 2 5 5 4 9 8 9 20 25 19 18 23 20 17 16 14 16 19 21 22 24 27 29 30 31 30 29 27 26 24 20 16 15 17 20 23 26 28 30 33 35 38 40 42 44 45 46 46 47 48 48 47 46 47 49 51 53 55 55
3 3 1 5 5 6 5 5 7 9 5 5 5 6 7 7 8 6 3 3 4 3 4 0 3 7 8 3 4 2 3 9 12 13 12 10 15 21 22 17 14 11 16 20 21 24 26 27 30 32 32 32 30 28 27 28 27 26 22 17 15 17 20 23 27 29 32 34 35 38 40 42 43 44 45 45 46 46 46 46 46 47 49 51 54 55
3 3 4 6 5 4 6 5 7 12 6 6 3 5 5 5 5 4 4 4 2 3 4 2 4 3 9 5 1 2 3 8 12 12 7 8 14 20 18 13 10 14 19 20 24 28 27 28 31 32 31 29 28 27 27 29 29 29 28 24 20 16 16 19 23 26 29 32 34 36 38 40 41 42 43 44 44 45 45 46 46 46 48 49 52 54
1 2 6 8 5 5 7 4 8 12 6 4 5 5 4 3 3 3 3 3 1 3 4 4 5 3 9 5 3 3 3 6 8 7 5 7 13 13 11 6 12 18 19 21 26 28 28 29 30 30 29 27 26 27 27 29 29 30 30 28 25 21 17 16 18 21 24 28 32 35 37 38 39 40 42 43 43 44 45 46 46 46 47 48 50 51
1 2 2 5 6 6 6 2 3 7 5 4 6 4 5 4 4 3 1 3 1 5 5 9 10 5 6 5 3 3 4 5 4 4 4 6 9 8 4 8 16 21 21 22 26 28 28 28 27 28 27 26 25 26 27 28 28 29 29 28 27 23 20 19 17 18 20 23 26 30 33 36 38 39 41 42 43 43 44 45 45 45 46 46 47 48
0 2 1 5 6 5 7 4 3 2 3 4 3 3 3 4 4 4 4 3 1 6 4 8 10 8 7 5 2 4 5 5 4 2 4 5 9 11 5 13 19 21 22 25 27 27 27 26 27 28 26 25 25 25 27 28 28 28 28 28 27 24 22 20 19 18 19 21 24 26 29 32 35 37 39 40 42 43 43 44 44 44 44 44 45 47
2 4 4 2 4 6 5 3 3 3 4 4 3 2 2 4 3 3 2 1 3 6 4 3 4 5 8 5 3 8 9 8 8 7 8 8 13 19 12 12 17 18 22 26 26 24 24 24 25 26 25 24 24 25 27 28 28 28 28 29 28 25 22 20 20 20 20 21 23 26 28 29 31 34 37 38 40 41 42 42 43 44 44 44 44 45
3 4 1 1 3 7 8 4 2 1 3 5 4 4 3 1 2 4 3 2 4 5 4 1 2 4 5 3 7 13 13 8 5 9 13 13 15 21 16 13 17 18 22 24 23 23 22 22 23 23 22 22 23 26 26 26 27 28 29 29 28 26 22 20 19 19 20 21 22 25 27 28 30 32 34 36 38 40 40 41 42 43 43 43 42 42
3 6 3 4 2 7 10 7 4 4 5 6 5 5 4 4 4 4 3 4 6 4 3 1 3 3 2 3 7 10 8 8 6 9 12 11 13 13 11 18 21 20 21 23 22 22 21 21 22 21 21 22 23 25 24 24 25 26 28 29 28 28 25 21 18 17 18 20 22 24 26 28 30 31 32 34 36 38 40 40 41 42 42 42 42 41
2 7 5 2 0 8 7 4 4 6 1 3 3 3 3 4 5 4 4 4 2 2 3 2 4 4 4 6 9 5 4 8 11 13 12 11 8 10 20 25 24 22 22 22 23 23 22 23 23 23 24 25 24 24 24 25 26 26 28 28 28 27 26 25 22 19 17 18 20 23 26 27 29 31 33 33 35 37 38 39 39 40 41 41 41 41
2 6 3 2 1 5 4 2 3 3 2 1 3 3 3 3 5 3 5 1 2 4 5 3 5 6 4 7 6 1 3 5 8 10 9 8 14 23 27 26 25 25 24 23 24 24 24 25 25 27 27 27 26 25 24 25 26 26 27 27 28 27 26 26 25 23 20 17 18 21 23 27 29 31 33 34 34 36 37 39 39 39 39 40 40 40
4 6 5 4 4 7 4 2 1 1 4 5 3 4 1 1 3 2 2 1 0 7 5 3 9 10 6 5 3 5 7 7 8 8 11 17 22 24 24 26 26 26 25 24 24 24 25 26 26 27 27 27 27 26 26 25 25 25 25 25 27 28 28 27 26 26 23 20 19 19 20 23 26 29 31 33 34 35 36 38 38 39 39 39 39 40
4 6 6 4 5 3 1 2 1 1 3 5 3 1 2 2 2 1 2 2 4 6 3 4 9 8 5 6 5 5 3 5 8 9 11 15 19 20 21 24 25 27 28 27 27 27 27 28 28 27 27 27 27 26 26 26 25 24 24 24 24 25 27 28 28 27 26 24 22 21 21 21 22 25 29 30 30 32 33 35 36 37 39 39 39 40
3 4 6 1 3 0 2 2 3 3 2 1 1 1 1 2 2 1 2 1 2 5 4 4 5 5 6 4 1 1 2 5 6 9 10 12 16 19 21 22 24 27 28 28 29 29 29 29 29 29 29 28 28 28 27 26 25 25 25 25 25 24 24 25 27 27 26 26 24 24 23 20 19 21 25 27 28 29 30 31 32 34 35 37 39 40
2 4 6 2 1 0 0 3 6 6 3 3 2 2 1 1 0 1 2 1 2 4 4 4 5 6 5 1 6 5 8 9 7 9 10 12 18 21 23 24 25 27 27 28 29 30 31 31 30 30 30 29 29 28 29 28 28 28 28 28 28 28 27 26 26 26 26 26 25 24 23 22 20 18 20 23 25 28 28 29 31 31 32 35 37 39
1 3 4 4 3 3 5 5 6 6 4 3 4 4 4 4 3 4 5 3 3 4 4 5 7 6 5 3 3 8 10 9 10 11 10 12 18 21 24 26 26 28 29 29 30 30 31 32 32 31 30 30 30 30 30 30 30 31 31 31 30 30 29 29 27 26 26 26 25 25 24 23 22 20 19 20 21 23 25 28 30 30 32 34 35 37
3 1 1 4 6 7 8 3 2 2 1 1 3 4 5 6 5 7 8 3 3 4 4 6 7 5 5 5 6 10 9 10 15 15 11 14 19 20 23 25 26 28 28 28 28 28 29 29 29 29 29 29 29 30 30 31 31 31 31 30 29 29 28 28 28 27 26 25 25 25 24 23 22 21 21 21 21 21 22 23 26 28 30 32 33 35
3 2 1 4 4 6 8 2 5 3 2 1 4 4 5 5 5 7 5 2 3 4 5 7 6 2 2 2 9 12 11 14 18 18 16 16 20 22 23 25 26 26 26 26 26 26 27 27 27 28 29 29 29 29 30 30 30 29 30 30 29 29 29 28 27 27 26 26 25 25 25 25 24 23 22 22 22 23 22 22 22 24 26 28 30 33
1 1 1 1 3 4 6 3 3 4 2 1 3 3 2 3 5 5 2 2 4 6 7 9 5 2 2 2 9 10 11 12 12 15 17 16 18 20 21 23 25 26 27 27 27 27 27 27 28 28 29 30 31 31 31 30 30 30 30 30 30 30 30 29 28 27 26 26 25 25 25 26 27 27 26 25 25 25 24 24 23 23 24 25 27 29
2 2 1 2 6 6 7 6 1 1 1 2 2 4 4 3 6 7 4 4 5 6 8 9 7 5 5 2 7 6 7 9 7 9 13 13 14 16 18 21 23 24 26 27 27 27 27 27 27 28 29 29 30 31 31 31 31 31 30 30 31 31 31 31 30 30 29 27 26 25 25 25 26 27 28 28 28 27 26 26 26 26 25 25 25 27
0 2 2 4 7 7 7 5 1 2 1 3 3 5 6 5 5 5 4 5 5 5 7 9 9 10 9 6 7 7 4 5 5 5 7 9 10 12 15 17 19 21 23 24 25 26 26 26 27 27 28 29 29 30 30 30 30 30 30 30 31 31 32 32 32 32 32 31 29 27 26 25 25 26 26 27 28 28 28 26 26 27 28 27 27 27
1 2 4 7 8 5 4 4 3 2 2 2 4 6 7 8 7 7 9 8 7 8 7 5 7 11 11 8 4 4 5 4 4 3 4 5 6 8 11 13 15 16 18 20 23 24 24 26 27 27 27 28 28 28 28 29 29 29 29 29 30 31 32 32 33 33 33 32 31 30 29 28 26 25 25 25 26 27 27 27 26 26 27 28 29 28
2 3 4 5 6 4 5 7 6 5 4 4 5 7 9 11 12 12 13 12 9 9 9 9 13 17 14 7 1 1 2 3 3 4 3 2 3 5 7 10 12 14 15 17 18 19 20 22 24 25 26 27 27 28 28 28 28 29 29 29 29 30 30 31 32 33 33 33 32 32 31 30 29 27 26 26 25 26 27 28 28 27 26 26 29 30
2 2 1 1 3 5 7 9 8 7 8 9 9 9 11 14 16 16 16 15 15 17 16 16 20 19 9 1 3 1 2 4 6 7 6 6 6 6 7 9 12 13 13 14 15 15 16 18 20 21 22 24 24 25 26 27 28 28 29 30 30 31 31 31 32 32 33 33 33 32 32 32 31 31 30 29 28 27 27 28 28 29 28 27 26 28
2 2 3 3 4 7 9 10 11 10 9 10 11 11 14 17 18 17 16 16 16 17 16 16 18 12 1 3 1 2 2 4 6 7 8 9 9 8 9 11 13 13 12 13 14 14 14 16 17 18 20 21 21 22 22 23 25 26 27 28 29 30 31 32 32 32 33 33 33 32 32 33 32 32 33 32 31 30 29 29 29 29 30 30 28 26
2 2 4 5 5 7 9 12 12 9 9 10 12 16 19 19 16 15 14 12 11 11 11 11 11 5 2 2 2 3 3 4 5 8 9 10 10 10 11 13 16 16 16 16 16 15 15 16 17 18 19 20 20 21 21 22 23 24 25 26 27 29 30 31 31 32 33 33 33 33 33 33 33 33 33 33 33 32 31 31 31 30 30 30 30 29
2 2 3 4 6 9 10 9 5 5 8 11 10 13 16 16 13 12 10 8 7 5 6 7 4 1 2 3 2 2 3 3 6 10 12 14 15 14 13 14 18 19 19 19 19 19 18 18 19 20 21 21 22 22 22 22 23 24 25 25 26 27 28 29 30 31 32 33 34 34 34 33 33 33 33 33 33 33 33 33 32 31 31 31 31 31
5 6 5 4 5 9 8 3 4 4 10 10 4 3 6 8 9 9 7 6 4 2 1 0 2 4 3 3 3 4 4 5 9 11 11 14 17 17 15 15 18 20 22 22 22 22 22 22 22 23 23 24 24 24 24 23 23 24 25 26 27 27 28 29 30 30 31 32 33 33 34 34 34 34 34 33 33 34 34 34 33 32 32 32 32 32
6 7 4 3 4 5 2 4 4 9 8 5 3 1 1 2 2 2 4 4 3 2 4 4 3 5 4 5 8 9 11 11 12 13 14 14 18 19 17 15 17 20 23 24 25 25 25 25 26 26 27 27 28 28 28 27 26 26 27 28 28 28 28 29 30 30 31 32 33 33 34 34 35 35 35 34 34 35 34 34 34 33 33 33 33 33
6 4 2 2 3 1 1 2 7 6 4 7 6 1 2 2 4 2 4 4 4 4 5 4 4 5 5 9 12 13 15 13 11 15 19 18 19 19 18 16 16 18 21 24 26 27 28 28 29 30 31 31 32 32 32 31 30 30 31 31 30 30 29 29 30 30 31 33 34 35 35 35 36 36 36 36 36 36 36 36 35 35 34 34 34 34
7 4 3 3 3 2 2 5 6 5 9 10 7 2 2 1 3 2 1 4 5 6 5 4 5 6 7 12 16 16 13 8 6 14 21 20 17 17 19 18 18 18 20 23 25 27 29 31 32 33 34 35 36 36 35 34 34 34 35 35 34 34 33 32 31 30 30 32 33 35 35 36 37 38 38 38 39 39 38 38 37 37 36 36 37 36
8 6 5 4 4 3 3 4 4 5 6 4 4 5 3 3 3 4 2 2 4 8 8 6 5 7 8 10 15 14 7 3 3 11 21 23 19 17 19 20 21 21 22 24 26 28 30 31 33 34 35 37 39 39 39 37 36 37 38 39 39 38 38 37 35 34 33 34 34 34 35 36 37 39 40 40 41 41 41 41 40 39 38 38 38 39
6 6 5 4 4 3 4 4 5 5 5 2 4 5 3 3 3 4 2 4 2 7 10 9 8 9 8 10 13 7 2 2 4 10 21 27 25 23 22 22 23 25 27 28 29 30 31 32 33 34 37 39 41 42 41 40 40 41 42 43 43 43 43 42 40 38 38 38 38 37 36 36 37 38 40 41 42 42 43 43 42 41 41 40 40 40
1 2 4 5 5 6 6 5 4 4 3 3 5 5 5 5 3 4 5 6 5 8 9 10 11 13 12 13 11 4 4 6 8 15 25 28 28 29 28 27 28 28 29 32 33 32 32 32 33 35 38 41 43 43 43 43 42 43 45 46 46 46 46 45 44 43 42 42 42 41 39 38 38 38 40 41 43 44 44 45 45 44 44 44 43 43
1 1 2 3 6 9 9 6 4 4 4 5 7 8 9 4 2 2 5 4 8 9 9 7 11 14 15 15 11 7 11 17 18 24 29 28 29 33 32 33 36 34 33 33 34 33 32 31 32 36 39 42 44 45 45 43 43 45 46 46 47 48 47 46 46 46 46 47 47 47 45 43 42 42 42 42 43 45 45 46 47 47 47 47 46 46
1 0 1 2 2 4 5 4 4 5 5 5 6 7 9 4 1 5 4 4 7 12 16 15 15 17 17 17 17 17 21 24 26 28 29 29 32 34 34 36 38 37 35 34 33 32 32 32 35 39 43 45 46 46 46 44 45 47 48 48 49 49 47 46 47 48 49 50 50 51 50 49 48 47 46 46 46 47 47 47 48 49 50 50 49 49
3 2 2 3 3 1 2 3 4 5 3 4 4 3 4 5 3 6 10 17 24 26 25 22 22 22 20 20 21 23 24 26 28 29 30 31 33 33 34 36 35 34 33 32 33 34 35 37 41 44 47 49 49 49 48 46 47 49 50 51 52 51 48 48 49 49 50 51 52 52 53 53 52 52 51 50 50 50 50 50 50 51 51 51 52 51
2 3 3 4 3 2 3 4 5 4 1 2 3 3 5 9 15 21 22 22 26 29 26 22 24 26 24 20 20 21 24 26 28 29 29 31 32 32 33 33 32 32 33 33 36 39 40 43 46 48 51 52 52 52 51 49 50 51 53 54 53 50 50 50 51 51 53 54 54 55 55 55 55 55 55 55 54 54 54 53 53 54 53 52 52 52
4 6 5 4 3 3 5 7 7 4 3 9 12 14 19 25 31 32 27 23 25 29 27 23 23 24 21 18 18 20 23 25 26 27 27 28 30 31 32 33 33 35 37 39 42 44 44 46 48 50 53 55 55 54 53 52 51 52 54 55 52 49 50 51 51 53 55 56 57 58 57 57 57 57 57 57 57 57 57 56 56 56 56 54 52 52
7 7 3 1 4 4 7 15 16 11 15 24 27 28 29 31 32 32 30 26 25 26 24 20 19 19 18 18 18 20 21 22 24 25 26 28 30 32 34 36 38 39 42 45 46 47 47 47 49 51 53 55 56 56 54 53 51 51 52 52 49 48 49 50 53 55 57 59 60 61 61 61 61 61 60 60 59 58 58 58 57 57 56 55 53 52
7 9 5 3 6 6 7 12 14 13 19 25 26 28 29 30 31 31 28 25 23 22 20 17 15 16 17 17 18 20 22 24 24 26 29 31 34 36 37 39 41 42 44 46 46 46 47 48 49 50 51 55 58 57 55 54 52 51 50 48 47 48 49 51 54 56 58 60 62 63 63 64 64 65 64 63 62 60 59 58 57 55 54 53 52 51
4 4 4 6 9 9 9 13 16 18 21 23 25 27 28 30 31 28 23 21 20 17 16 15 16 17 18 19 19 21 25 26 26 27 31 34 37 38 39 40 42 43 46 47 46 46 47 48 50 50 51 55 57 56 54 54 53 52 50 48 47 47 49 52 54 55 58 60 62 63 64 64 64 64 64 64 62 59 58 57 55 53 53 53 50 49
4 3 3 5 7 8 10 15 17 16 16 21 26 27 25 25 25 22 19 18 17 17 18 19 20 20 20 21 21 22 26 29 28 27 31 35 38 39 40 41 43 45 46 47 47 47 47 48 49 51 53 56 57 56 56 56 56 54 51 49 49 48 50 54 57 58 60 62 62 64 64 62 61 61 59 59 58 56 55 55 53 51 52 54 53 50
6 7 5 4 5 8 9 12 13 8 8 14 18 17 16 18 18 16 16 17 17 20 23 24 24 24 22 22 23 24 26 30 30 30 32 37 39 39 40 42 44 46 47 47 48 49 50 50 51 52 55 58 58 57 57 58 58 56 54 52 52 52 53 56 58 60 62 61 60 60 59 57 57 55 53 52 53 53 54 55 53 50 50 54 56 54
11 12 9 6 7 10 15 19 17 10 9 15 16 14 14 16 16 16 17 18 19 20 21 22 25 26 25 25 25 25 27 30 31 32 36 39 41 41 41 43 45 46 48 49 50 51 52 51 51 51 52 54 55 55 56 56 56 55 53 52 51 50 50 50 52 55 57 56 55 55 53 52 52 51 50 50 49 49 52 55 57 55 53 53 54 55
Wind_Direction
170 161 163 201 216 215 218 209 217 242 278 280 235 252 261 267 267 251 260 266 186 280 269 255 271 275 270 267 269 276 278 274 273 276 276 277 279 281 282 282 282 283 286 294 299 303 309 311 312 309 305 301 297 293 288 283 278 273 269 264 260 258 255 252 250 247 245 243 241 240 240 239 240 239 239 239 238 238 238 238 238 238 237 236 235 235
165 190 214 219 220 214 223 222 228 262 298 272 251 271 264 249 268 265 265 274 191 251 263 247 273 277 272 270 266 270 272 261 257 263 272 276 280 281 280 279 282 286 290 297 304 311 319 322 323 321 317 314 310 305 296 289 282 274 268 263 261 258 254 251 248 247 245 245 244 243 243 243 242 241 240 240 239 239 238 237 237 237 236 236 235 235
193 220 231 230 227 165 24 65 143 222 244 251 248 277 278 251 276 277 261 285 342 227 275 287 279 277 273 263 253 252 253 256 261 261 267 272 275 275 275 277 283 289 294 302 314 324 335 344 349 350 349 345 336 324 310 300 290 278 269 263 261 258 255 252 249 247 246 246 247 247 247 246 245 244 243 242 241 240 239 238 236 236 235 235 235 235
214 237 236 234 223 191 282 61 98 228 250 230 223 253 273 262 277 275 271 320 337 237 277 297 286 282 270 255 248 249 251 262 267 263 263 266 266 267 270 276 282 289 298 310 323 342 9 23 23 23 21 16 5 348 330 312 296 284 277 271 266 263 260 258 255 252 250 248 248 247 246 246 245 245 245 243 242 241 240 239 238 237 236 235 234 234
229 240 231 219 193 197 235 184 117 258 264 228 208 220 258 258 251 255 284 338 321 281 303 315 296 289 256 245 263 271 264 257 259 261 263 262 260 263 269 275 283 296 312 325 343 18 37 34 31 33 34 31 23 13 0 342 317 293 279 274 270 268 266 264 262 259 255 251 247 245 243 242 242 242 242 241 240 240 239 239 238 238 236 235 235 235
248 246 187 136 165 185 203 227 199 215 252 264 214 210 237 253 257 262 293 344 342 308 340 7 318 299 60 113 276 298 303 258 250 255 254 253 257 264 272 280 301 326 337 356 25 39 37 37 42 40 37 35 30 23 17 10 354 327 296 278 271 270 268 267 267 264 259 255 251 248 245 243 242 241 242 242 241 241 241 241 240 240 239 237 236 236
244 244 210 145 151 147 163 236 223 197 239 288 238 210 225 242 255 264 285 328 297 257 297 45 335 285 306 147 245 264 271 274 262 241 246 255 273 283 281 298 328 340 7 41 50 47 44 45 43 37 35 31 27 24 22 21 15 2 336 302 281 274 273 271 269 266 263 260 256 254 252 251 250 249 249 249 247 246 246 245 244 243 242 240 238 237
195 219 103 115 124 127 158 237 217 173 188 269 239 192 198 222 236 236 230 227 239 282 306 86 156 276 287 237 251 248 215 265 262 253 264 298 313 296 295 324 345 8 45 57 55 53 49 43 35 30 28 25 23 24 23 23 22 18 10 348 317 290 279 274 271 268 266 264 262 260 258 256 256 255 255 254 253 251 249 247 246 244 243 242 240 238
151 172 175 145 122 154 196 219 179 158 182 249 208 142 159 196 207 175 169 207 257 346 305 248 147 255 279 264 12 39 211 250 259 262 290 323 305 294 304 337 28 52 52 54 52 49 42 35 31 28 27 27 28 27 24 22 20 18 17 12 360 332 302 284 277 273 270 267 265 263 261 260 259 258 256 255 255 253 251 249 247 245 244 243 241 239
88 177 182 151 138 202 211 207 169 166 194 217 141 98 81 82 79 101 141 143 64 309 256 210 172 236 281 275 97 65 260 249 262 271 284 294 288 288 304 355 63 60 54 54 45 37 34 31 29 28 29 31 30 27 23 20 17 14 11 11 11 2 340 313 291 280 276 273 268 265 264 263 262 260 257 256 255 254 252 250 249 247 245 243 242 241
297 69 132 173 198 198 166 116 147 165 163 128 113 63 38 37 44 54 47 88 57 284 230 189 188 195 281 287 144 171 236 224 248 290 306 310 307 308 346 56 58 58 58 49 34 29 29 28 27 28 28 27 25 22 19 17 14 11 7 6 6 5 357 341 319 297 284 278 275 272 269 266 265 262 259 258 257 256 254 252 250 249 247 245 244 243
333 117 220 229 215 164 115 77 27 65 105 101 87 53 12 337 16 26 355 49 183 267 236 192 192 191 234 264 234 243 248 222 221 271 320 330 319 315 14 57 48 57 58 38 29 27 23 20 22 24 23 22 19 17 15 13 11 9 7 4 3 2 358 349 336 321 302 287 281 278 273 270 267 263 262 261 260 260 259 257 255 253 250 248 245 243
266 220 243 255 207 174 137 96 14 27 70 84 92 93 331 316 350 345 319 71 221 259 265 205 189 222 242 249 254 263 266 245 217 222 258 278 290 295 314 28 43 58 52 35 32 29 23 22 20 20 21 19 17 15 12 9 7 7 7 5 2 0 356 348 340 331 317 302 290 281 276 274 270 265 263 263 262 262 262 261 259 258 255 252 250 247
299 287 274 93 250 194 166 158 212 212 142 149 155 153 174 224 280 273 253 264 268 275 295 256 196 263 282 274 232 244 263 274 231 232 257 270 278 289 311 16 48 55 41 32 33 29 27 26 22 23 24 20 17 14 10 7 5 4 5 5 3 359 354 348 343 334 323 312 300 288 280 276 272 269 267 265 264 263 263 262 261 261 261 259 258 256
282 303 224 186 238 177 179 199 182 130 152 184 162 141 169 182 215 244 236 257 270 286 311 275 201 221 258 276 236 234 272 317 315 279 272 273 278 298 358 42 51 48 33 29 35 37 37 35 33 34 32 27 22 15 9 8 5 2 2 3 2 0 355 347 341 334 326 316 306 295 286 279 273 271 271 270 268 265 264 264 263 263 263 263 263 262
249 276 245 251 262 159 181 231 138 103 167 212 122 119 211 193 194 244 251 232 239 296 283 222 231 231 208 266 271 259 302 321 314 301 285 277 303 29 50 48 42 42 41 38 42 46 46 43 40 36 32 28 24 18 13 9 6 4 2 1 1 3 1 354 344 335 329 319 307 298 290 283 276 272 271 271 270 268 265 265 265 265 266 265 265 264
233 270 249 32 333 190 203 259 137 141 211 165 117 187 240 165 155 237 268 273 89 257 255 213 250 276 286 285 282 58 43 349 336 336 334 352 40 55 51 44 42 46 49 48 48 47 43 40 36 32 29 26 25 24 20 15 12 8 4 1 1 1 3 2 355 346 338 326 313 302 292 286 280 275 273 271 271 270 267 266 266 267 267 267 266 265
210 260 239 171 231 236 215 187 130 130 145 135 183 227 274 122 141 166 249 355 243 248 262 250 257 276 294 289 322 33 29 9 355 4 20 30 43 47 42 42 46 48 49 48 47 43 40 38 36 34 32 29 28 26 22 20 16 11 7 4 0 359 1 4 3 358 351 341 328 315 302 293 287 283 278 275 274 272 270 269 269 268 268 268 268 267
195 258 264 185 204 234 140 156 287 304 170 154 190 203 81 207 217 142 191 214 237 244 255 250 257 265 246 248 293 325 7 39 14 16 31 33 35 35 34 37 39 42 44 43 42 41 40 40 38 38 37 34 33 30 26 22 15 11 11 9 7 3 1 0 1 2 359 353 345 334 321 306 296 291 286 281 279 276 274 274 273 272 271 271 270 269
163 245 275 188 172 150 67 160 197 233 243 111 92 352 73 180 201 152 183 189 248 252 254 245 255 257 246 243 168 198 97 66 27 35 46 35 34 34 32 32 31 36 39 39 41 41 40 41 40 39 37 35 35 33 30 26 21 19 17 13 11 7 3 357 355 358 360 358 355 349 339 325 309 297 290 286 283 281 280 279 278 277 276 275 273 271
128 232 252 235 238 342 150 200 186 186 186 134 158 227 219 166 84 282 230 179 208 246 252 250 248 251 262 153 119 98 46 34 32 63 68 42 35 34 31 31 31 32 35 37 38 37 36 37 36 36 35 34 33 31 30 28 25 24 21 17 13 9 6 2 356 353 354 355 355 353 348 340 328 312 300 292 287 284 284 283 282 282 281 279 276 274
182 232 239 237 246 240 237 221 192 191 187 179 199 203 210 223 252 274 252 191 186 227 228 246 256 249 263 292 80 67 51 42 39 57 68 48 39 34 32 34 33 33 33 32 32 31 30 29 27 26 25 23 23 23 22 21 19 16 15 15 13 10 8 7 4 358 353 352 352 351 350 345 338 328 315 306 298 293 291 289 287 286 284 282 279 278
145 126 263 249 241 251 260 248 137 208 195 218 243 213 214 219 213 238 251 226 207 223 214 246 259 242 257 305 34 58 61 57 48 49 53 43 37 34 33 34 34 34 32 28 26 25 23 21 18 14 10 8 8 8 9 12 14 13 12 11 11 11 10 9 8 5 0 356 354 353 351 348 343 335 325 316 307 300 295 293 291 288 285 282 281 279
117 141 225 241 250 278 280 319 51 35 86 134 252 219 205 218 217 230 247 275 254 231 227 248 252 233 277 24 80 82 68 57 51 49 47 37 32 32 32 32 31 29 26 23 22 19 16 15 12 10 9 8 7 6 7 8 10 11 11 9 8 9 9 7 6 6 4 1 360 357 355 353 351 345 337 327 316 306 298 293 290 289 287 284 282 279
20 194 155 230 280 298 288 291 13 17 47 201 254 245 237 271 285 282 280 298 260 223 228 250 248 210 246 70 85 92 85 72 58 55 57 49 37 34 31 28 25 22 20 18 16 15 14 13 12 12 12 11 10 8 7 6 5 5 5 5 4 3 3 2 2 2 1 1 0 360 359 358 356 354 349 342 332 321 311 302 295 292 290 288 286 282
329 273 182 276 268 262 272 274 278 48 288 267 300 318 322 293 280 286 276 254 245 215 221 250 266 259 252 5 31 45 85 91 83 69 66 61 51 44 37 29 22 19 18 16 14 13 12 12 12 11 9 8 7 6 4 3 1 0 360 360 359 358 357 356 356 356 356 356 357 358 359 359 359 358 356 351 345 338 327 315 305 298 294 292 291 288
292 280 237 246 259 259 276 289 8 60 265 268 314 325 325 311 285 284 264 248 271 273 250 251 268 276 279 311 346 351 17 59 80 72 56 57 58 52 43 34 27 22 18 15 12 10 9 9 8 7 6 5 3 2 1 359 358 357 356 355 354 353 353 352 352 351 351 351 352 353 355 357 358 357 356 355 353 349 343 333 319 306 298 295 292 291
171 278 244 248 264 268 298 308 326 356 280 268 308 304 304 304 291 278 266 272 308 303 275 277 293 290 290 294 316 353 352 1 42 54 41 45 48 44 37 30 25 21 18 14 11 8 6 4 2 1 1 0 359 358 357 356 355 354 353 352 350 349 349 348 349 349 348 347 348 348 350 352 353 352 352 352 352 353 352 348 338 323 307 298 292 291
165 265 256 265 288 310 322 307 301 306 293 281 281 277 284 285 276 270 269 277 290 278 273 293 291 284 285 280 241 63 349 317 331 343 339 345 8 21 19 15 13 11 10 10 8 6 4 360 357 357 356 354 354 353 352 351 350 349 349 349 348 347 347 346 346 346 345 345 344 344 345 345 345 346 347 346 347 349 351 351 350 342 328 311 298 292
197 260 278 293 307 305 297 290 292 298 294 287 279 271 271 268 265 267 268 268 265 261 265 274 273 275 284 183 156 145 334 317 315 318 317 309 316 337 351 356 357 355 356 357 356 358 357 355 354 353 352 351 350 347 347 346 345 344 344 344 344 344 344 343 342 342 341 341 341 340 339 338 338 339 340 341 342 343 345 346 348 348 344 334 317 301
288 293 345 358 311 295 290 286 289 293 290 287 284 275 266 262 262 264 264 263 261 261 265 265 265 270 281 113 187 257 290 308 303 303 305 296 294 309 323 333 340 341 339 339 340 343 344 345 347 347 346 347 346 344 343 342 341 340 340 340 340 340 340 339 339 338 337 337 337 337 335 334 333 333 333 334 335 337 339 340 341 343 344 343 337 323
318 301 333 335 298 282 286 288 295 309 304 284 274 268 263 260 258 256 256 260 261 264 269 267 267 267 131 139 262 260 256 283 289 292 299 296 287 286 295 312 327 333 332 331 331 332 333 335 337 338 339 339 339 339 338 337 336 335 335 335 336 335 335 334 334 334 333 332 332 333 333 332 331 330 329 329 329 330 332 334 335 337 338 339 341 337
245 268 288 291 281 279 284 292 321 348 305 277 262 256 256 258 261 261 260 261 256 249 258 265 261 194 174 196 242 266 257 275 293 297 305 309 302 290 288 303 320 328 329 328 327 326 326 327 329 331 332 332 331 331 331 330 329 327 327 328 329 330 329 328 329 329 329 328 329 329 330 330 330 330 330 328 327 325 326 327 329 332 333 333 334 336
227 249 252 242 260 273 284 340 18 307 274 272 270 228 243 257 264 267 261 242 229 193 164 195 141 155 180 190 206 246 250 258 281 289 294 302 300 291 288 300 315 325 328 327 324 323 322 322 323 324 326 327 326 325 325 324 322 320 319 320 322 323 323 323 324 324 324 324 324 325 326 327 328 329 329 329 328 325 323 322 323 325 328 328 328 329
235 239 240 210 224 259 323 32 306 265 253 272 308 88 258 257 210 252 268 235 217 148 113 117 167 186 194 205 220 241 250 254 267 269 267 280 286 280 278 291 308 321 328 328 324 321 320 319 318 320 322 324 323 323 323 322 319 315 313 314 316 316 317 317 318 320 320 320 320 321 322 323 325 326 327 328 328 326 324 322 320 320 322 322 323 324
227 216 207 198 209 230 76 195 243 257 298 299 283 162 76 65 102 63 305 260 219 171 141 162 213 215 216 229 239 252 255 256 264 266 268 280 282 268 260 273 294 308 319 325 325 323 320 317 316 317 318 319 320 319 320 320 318 314 311 310 310 310 310 309 310 313 314 314 315 317 318 319 320 321 323 324 324 325 325 324 322 321 320 318 317 317
205 190 185 218 229 219 211 227 247 302 315 297 276 203 124 161 156 137 274 257 215 185 172 186 222 228 226 240 255 263 262 265 276 278 286 295 286 260 250 259 276 289 302 314 320 322 321 318 315 314 313 314 315 315 315 317 316 312 310 309 308 307 306 305 305 307 308 308 308 310 312 315 316 317 318 319 320 320 321 322 322 322 321 318 315 313
204 203 198 225 246 209 207 250 266 277 280 268 244 250 252 239 209 141 115 280 219 196 197 191 218 240 228 237 256 261 266 298 279 284 303 312 300 271 256 259 270 280 289 299 306 313 318 318 314 310 309 309 310 311 312 313 312 310 308 307 307 306 305 304 304 304 304 302 302 303 306 308 310 312 313 314 315 315 316 317 318 318 319 318 315 313
198 215 207 222 254 229 221 246 242 247 263 226 215 237 230 218 197 106 36 312 204 194 208 197 216 250 245 246 255 245 227 290 256 280 306 315 310 292 273 269 277 283 286 290 294 301 311 315 311 306 304 304 305 307 308 308 308 307 306 306 306 305 304 304 304 304 302 299 299 299 300 301 303 304 306 307 309 310 312 313 314 315 315 315 314 313
128 218 214 214 235 239 241 249 244 250 259 215 218 226 199 186 136 60 324 285 189 202 230 212 222 256 268 265 261 203 180 236 257 287 302 309 308 298 284 277 281 285 288 289 289 293 303 308 305 302 300 299 300 302 303 303 303 303 302 303 304 302 302 303 304 303 301 298 297 297 296 297 298 299 300 301 303 305 307 308 310 312 313 313 312 312
23 322 254 225 231 237 240 249 262 260 246 238 235 209 176 148 31 291 267 235 186 220 269 259 248 276 287 276 264 236 245 263 278 292 301 305 304 301 295 286 282 283 287 289 287 290 298 300 298 298 298 297 298 299 301 301 301 300 300 300 299 299 299 301 300 300 298 297 297 296 296 296 296 297 297 298 300 301 302 304 306 308 310 311 311 309
204 46 320 252 230 243 242 249 279 278 252 235 230 197 160 135 276 234 238 322 295 290 308 308 296 302 301 284 276 269 270 281 290 296 303 308 307 307 304 297 288 283 285 287 286 289 295 297 297 298 298 298 298 299 300 300 299 299 299 298 297 297 298 297 295 294 294 294 294 294 294 295 295 295 295 296 297 298 298 300 302 304 306 307 308 308
185 149 262 223 192 231 244 233 257 270 248 162 170 188 164 168 231 296 315 316 310 308 312 310 307 310 304 292 289 286 285 291 297 300 305 307 307 306 302 297 291 285 285 287 286 289 296 300 300 300 300 299 299 299 300 300 299 298 297 295 296 297 296 294 292 291 290 290 290 290 291 292 293 293 294 294 295 295 296 297 298 300 302 303 305 305
190 175 232 231 198 194 214 218 219 219 208 111 163 219 256 272 295 308 308 303 303 304 304 303 306 309 307 300 296 293 293 296 299 303 304 301 300 299 296 292 289 287 289 290 291 295 301 304 303 302 301 299 299 299 300 299 298 296 295 294 295 295 293 291 290 288 287 287 287 287 288 289 290 291 291 292 293 294 294 295 296 297 298 300 301 301
208 195 216 238 228 179 199 243 248 220 275 289 272 265 278 289 295 298 295 291 294 298 300 302 304 306 306 302 297 295 297 298 298 299 297 294 293 292 292 291 292 295 297 298 298 302 305 306 304 302 300 299 299 299 298 297 295 294 293 294 294 292 290 289 288 286 286 286 286 286 287 287 287 288 289 290 291 292 293 293 294 295 296 296 297 297
237 226 203 236 270 257 245 257 264 266 272 275 276 277 281 287 290 291 290 289 290 295 299 300 298 299 300 300 300 300 298 297 298 297 296 297 295 294 295 296 298 300 302 303 304 305 305 304 302 300 299 298 298 297 296 294 293 292 292 293 292 290 289 288 287 286 286 285 286 286 286 287 286 286 287 287 288 289 290 291 292 292 293 293 293 293
255 239 213 223 261 265 258 256 256 259 264 268 273 277 280 284 286 287 289 290 292 294 296 295 297 301 302 302 303 302 300 300 303 304 303 303 301 300 302 304 305 306 306 305 305 304 303 301 300 298 297 296 296 296 295 294 293 292 292 292 291 290 289 287 286 286 285 285 285 285 286 286 286 286 287 286 286 287 287 287 288 288 288 288 288 288
253 228 206 227 243 241 250 262 264 265 268 270 273 275 278 281 284 284 285 286 287 289 292 296 301 303 304 306 306 305 304 305 308 310 308 306 305 307 308 309 309 308 306 305 304 303 302 301 300 299 298 296 295 295 295 293 292 291 291 292 291 290 289 286 285 285 285 284 285 285 285 286 286 287 287 287 287 287 286 285 285 284 284 283 283 282
209 223 195 202 240 251 258 267 272 276 275 270 269 271 273 276 278 278 280 280 282 287 292 297 302 305 307 310 311 310 308 308 311 313 310 308 309 310 310 309 308 307 306 306 305 304 304 302 301 300 298 296 295 295 294 292 291 290 290 291 290 289 288 286 285 285 285 285 285 285 285 286 287 287 287 287 287 286 285 284 283 282 281 281 279 277
194 243 233 195 243 260 256 259 263 267 273 272 271 271 268 269 270 272 276 281 287 293 297 299 302 305 309 313 314 315 313 312 314 314 311 310 310 310 309 309 309 308 308 307 306 305 304 302 301 300 298 296 296 295 294 293 292 291 292 291 291 290 289 288 287 287 286 285 285 285 286 286 286 286 285 285 285 284 283 281 279 277 275 276 277 275
214 236 238 227 244 255 261 266 264 256 263 276 281 277 267 266 271 275 282 290 294 296 300 303 305 308 311 315 317 317 315 314 314 312 310 309 309 310 310 310 309 307 307 307 307 308 308 308 307 305 304 303 303 301 300 299 298 299 299 299 298 296 294 292 291 289 287 287 286 286 286 285 285 285 284 283 283 283 283 282 280 277 274 274 275 275